Weather History for Fairbanks Eiels, AK

Change the Weather History Date:

Tuesday, January 7, 2014

  Actual Average Record
Temperature  
Mean Temperature 1 °F -  
Max Temperature 11 °F 1 °F 41 °F (2001)
Min Temperature -6 °F -15 °F -58 °F (1975)
Degree Days  
Heating Degree Days 64    
Moisture  
Dew Point -3 °F    
Average Humidity 83    
Maximum Humidity 88    
Minimum Humidity 78    
Precipitation  
Precipitation 0.00 in - - ()
Sea Level Pressure  
Sea Level Pressure 29.61 in    
Wind  
Wind Speed 0 mph (ESE)    
Max Wind Speed 4 mph    
Max Gust Speed -    
Visibility 10 miles    
Events      
Averages and records for this station are not official NWS values.
T = Trace of Precipitation, MM = Missing Value Source: NWS Daily Summary

Daily Weather History Graph

Daily Weather History Graph

Search for Another Location

Airport:

Trip Planner

Search our weather history database for the weather conditions in past years. The results will help you decide how hot, cold, wet, or windy it might be!

Date:

Astronomy

Jan. 07, 2014 Rise Set
Actual Time 10:39 AM AKST 3:11 PM AKST
Civil Twilight 9:22 AM AKST 4:27 PM AKST
Nautical Twilight 8:14 AM AKST 5:35 PM AKST
Astronomical Twilight 7:14 AM AKST 6:35 PM AKST
Moon 11:26 AM AKST (1/7) 12:49 AM AKST (1/7)
Length of Visible Light 7h 04m
Length of Day
4h 32m
Waxing Crescent, 47% of the Moon is Illuminated
Jan 7
Waxing Crescent
Jan 7
First Quarter
Jan 15
Full
Jan 23
Last Quarter
Jan 30
New

Hourly Weather History & Observations

Time (AKST) Temp. Windchill Dew Point Humidity Pressure Visibility Wind Dir Wind Speed Gust Speed Precip Events Conditions
12:58 AM 0.1 °F - -4.4 °F 81% 29.70 in 10.0 mi Calm Calm - N/A   Clear
1:58 AM -2.2 °F - -6.9 °F 80% 29.70 in 10.0 mi SSE 2.3 mph - N/A   Clear
2:58 AM -2.0 °F - -6.5 °F 81% 29.71 in 10.0 mi Calm Calm - N/A   Clear
3:58 AM -3.5 °F - -8.1 °F 80% 29.71 in 10.0 mi Calm Calm - N/A   Clear
4:58 AM -4.0 °F - -8.5 °F 81% 29.70 in 10.0 mi Calm Calm - N/A   Clear
5:58 AM -6.0 °F - -10.8 °F 79% 29.68 in 10.0 mi Calm Calm - N/A   Clear
6:58 AM -5.3 °F - -9.8 °F 81% 29.67 in 10.0 mi Calm Calm - N/A   Clear
7:58 AM -5.4 °F - -10.1 °F 80% 29.66 in 10.0 mi Calm Calm - N/A   Clear
8:28 AM -4.0 °F - -9.4 °F 78% 29.61 in 10.0 mi Calm Calm - N/A   Scattered Clouds
8:47 AM -4.0 °F - -9.4 °F 78% 29.61 in 10.0 mi Calm Calm - N/A   Partly Cloudy
8:58 AM -4.4 °F - -9.0 °F 80% 29.66 in 10.0 mi Calm Calm - N/A   Mostly Cloudy
9:43 AM -4.0 °F - -7.6 °F 85% 29.61 in 10.0 mi Calm Calm - N/A   Mostly Cloudy
9:58 AM -4.0 °F - -9.4 °F 78% 29.66 in 10.0 mi Calm Calm - N/A   Mostly Cloudy
10:58 AM -4.5 °F - -9.0 °F 81% 29.67 in 10.0 mi Calm Calm - N/A   Mostly Cloudy
11:58 AM -0.8 °F - -5.3 °F 81% 29.65 in 10.0 mi Calm Calm - N/A   Overcast
12:07 PM -0.4 °F - -4.0 °F 85% 29.60 in 10.0 mi Calm Calm - N/A   Overcast
12:58 PM 0.5 °F - -3.8 °F 82% 29.65 in 10.0 mi Calm Calm - N/A   Mostly Cloudy
1:43 PM 1.4 °F - -2.2 °F 85% 29.58 in 10.0 mi Calm Calm - N/A   Overcast
1:58 PM 2.5 °F -5.0 °F -1.5 °F 84% 29.63 in 10.0 mi Variable 3.5 mph - N/A   Overcast
2:58 PM 3.7 °F - -0.0 °F 84% 29.62 in 10.0 mi Calm Calm - N/A   Clear
3:58 PM 4.6 °F - 0.9 °F 84% 29.60 in 10.0 mi Calm Calm - N/A   Clear
4:58 PM 6.1 °F - 2.5 °F 85% 29.60 in 10.0 mi Calm Calm - N/A   Scattered Clouds
5:58 PM 6.4 °F - 2.5 °F 84% 29.57 in 10.0 mi Calm Calm - N/A   Scattered Clouds
6:58 PM 3.9 °F - -0.0 °F 84% 29.56 in 10.0 mi Calm Calm - N/A   Mostly Cloudy
7:58 PM 3.4 °F - -0.8 °F 83% 29.55 in 10.0 mi Calm Calm - N/A   Clear
8:58 PM 3.9 °F - 0.1 °F 84% 29.52 in 10.0 mi SSE 2.3 mph - N/A   Partly Cloudy
9:58 PM 6.6 °F - 3.0 °F 85% 29.51 in 10.0 mi Calm Calm - N/A   Overcast
10:13 PM 6.8 °F - 3.2 °F 85% 29.46 in 10.0 mi Calm Calm - N/A   Overcast
10:28 PM 6.8 °F - 3.2 °F 85% 29.46 in 10.0 mi Calm Calm - N/A   Overcast
10:58 PM 8.4 °F - 5.2 °F 87% 29.50 in 10.0 mi NNE 2.3 mph - N/A   Overcast
11:58 PM 11.8 °F 5.7 °F 8.8 °F 88% 29.49 in 10.0 mi Variable 3.5 mph - N/A   Mostly Cloudy